Regional Weather Roundup
Issued by NWS

Home | Current Version | Previous Version | Text Only | Print | Product List | Glossary On
Versions: 1 2 3 4 5 6 7 8 9 10 11 12 13 14 15 16 17 18 19 20 21 22 23 24 25 26 27 28 29 30 31 32 33 34 35 36 37 38 39 40 41 42 43 44 45 46 47 48 49 50
000
ASUS43 KMPX 010310
RWRMN
WEATHER ROUNDUP FOR MINNESOTA
NATIONAL WEATHER SERVICE TWIN CITIES/CHANHASSEN MN
900 PM CST SUN FEB 28 2021


NOTE: "FAIR" INDICATES FEW OR NO CLOUDS BELOW 12,000 FEET WITH NO
SIGNIFICANT WEATHER AND/OR OBSTRUCTIONS TO VISIBILITY. N/A MEANS
CURRENT SKY AND/OR WEATHER CONDITIONS ARE NOT AVAILABLE.

MNZ060>063-068>070-010400-
   Twin Cities Metro

CITY           SKY/WX    TMP DP  RH WIND       PRES   REMARKS
TWIN CITIES    CLEAR     20  11  68 W10       30.05R WCI   9
ST PAUL        CLEAR     21  11  65 W14       30.05R WCI   8
CRYSTAL        CLEAR     20  10  65 W12       30.03R WCI   8
BLAINE         CLEAR     19  12  73 W12       30.02R WCI   7
LAKEVILLE      CLEAR     18  12  79 W9        30.05R WCI   6
EDEN PRAIRIE   CLEAR     19  11  70 W9        30.04R WCI   8
SOUTH ST PAUL  CLEAR     21  11  65 W8        30.04R WCI  12
LAKE ELMO      FAIR      19  10  68 MISG      30.02S
$$
MNZ001>005-007-008-013>017-022>024-027-028-010400-
   Northwest Minnesota

CITY           SKY/WX    TMP DP  RH WIND       PRES   REMARKS
BEMIDJI        MOCLDY    12   5  73 NW13      30.03R WCI  -3
HALLOCK        MOCLDY    10  -8  44 N20G25    30.14R WCI  -8
ROSEAU         MOCLDY    14   0  52 NW10      30.09R WCI   1
WARROAD        PTCLDY     9   1  72 NW8       30.08R WCI  -4
THIEF RVR FALL FLURRIES  11   2  67 N15       30.10R WCI  -5
CROOKSTON      PTCLDY    12   3  67 N12       30.12S WCI  -2
FOSSTON        MOCLDY    10   3  72 NW12G18   30.06S WCI  -4
DETROIT LAKES  FLURRIES  14   9  79 N12       30.03S WCI   0
MOORHEAD       CLOUDY    19   7  58 N13       30.09R WCI   7
PARK RAPIDS    CLOUDY    14   5  67 N7        30.02R WCI   4
MAHNOMEN       MOCLDY    13   8  81 N12       30.06S WCI  -1
$$
MNZ006-009>011-018-025>026-010400-
   North Central Minnesota

CITY           SKY/WX    TMP DP  RH WIND       PRES   REMARKS
BAUDETTE       PTCLDY     9   0  67 NW12      30.04R WCI  -6
FLAG ISLAND    PTCLDY     7  -4  61 NW14      30.06R WCI -10
INTL FALLS     PTCLDY     9  -2  61 NW15G29   29.99R WCI  -8
WASKISH        CLOUDY    10   1  67 NW8       30.04R WCI  -1
BIG FORK       PTCLDY    12   1  62 W5        30.04R WCI   4
GRAND RAPIDS   MOCLDY    13   4  67 NW13      30.00R WCI  -2
CRANE LAKE       N/A      9   1  72 W3        29.99R
ORR            PTCLDY     9   0  66 NW8       29.94R WCI  -4
COOK           CLEAR     10   1  67 W9        29.96R WCI  -2
WALKER         MOCLDY    12   4  71 NW9       30.03R WCI  -1
$$
MNZ012-019>021-037-010400-
   Northeast Minnesota

CITY           SKY/WX    TMP DP  RH WIND       PRES   REMARKS
DULUTH         MOCLDY    16   3  56 NW17G25   29.92R WCI   0
ELY            PTCLDY    10   0  61 NW9G17    29.92R WCI  -2
HIBBING        MOCLDY    13   2  61 NW15G22   29.95R WCI  -3
EVELETH        MOCLDY    13   2  62 NW9G18    29.95R WCI   1
DULUTH HARBOR  FLURRIES  19   7  58 W17       29.99R WCI   4
TWO HARBORS    MOCLDY    16   0  48 W9        29.92R WCI   4
SILVER BAY     PTCLDY    12  -2  52 W9        29.91R WCI   0
GRAND MARAIS     N/A     17   1  49 VRB5      29.89R WCI  10
G MARAIS ARPRT PTCLDY    10  -2  56 W10G21    29.78R WCI  -3
$$
MNZ029>031-032-039>041-046>048-054>057-064-010400-
   West Central Minnesota

CITY           SKY/WX    TMP DP  RH WIND       PRES   REMARKS
FERGUS FALLS   PTCLDY    18  10  73 N7        30.01R WCI   8
WHEATON        MOCLDY    21  14  73 CALM      30.06R
MORRIS         PTCLDY    18  12  79 CALM      30.04S
ALEXANDRIA     MOCLDY    18  11  74 NW7       30.01F WCI   9
ELBOW LAKE     FAIR      17  12  79 E3        30.02F
WADENA         PTCLDY    14   7  73 NW6       30.02S WCI   5
GLENWOOD       PTCLDY    18  12  79 N7        30.02S WCI   8
APPLETON       PTCLDY    19  12  73 S5        30.05R WCI  13
BENSON         PTCLDY    14  12  92 CALM      30.04F
ORTONVILLE     PTCLDY    21  16  79 E5        30.04R WCI  15
MADISON        PTCLDY    21  16  79 SW5       30.06F WCI  15
WILLMAR        FAIR      12   9  85 CALM      30.07S
$$
MNZ033>034-036-042>043-049>051-058-059-010400-
   Central Minnesota

CITY           SKY/WX    TMP DP  RH WIND       PRES   REMARKS
ST CLOUD       MOCLDY    19   9  65 W9        30.03R WCI   8
SAUK CENTRE    CLOUDY    19  12  74 NW8       30.03S WCI   9
PAYNESVILLE    MOCLDY    19  16  86 NW8       30.04S WCI   9
AITKIN         MOCLDY    16   7  67 NW7G17    30.00R WCI   6
PINE RIVER     MOCLDY    18   9  68 NW7       30.05R WCI   8
BRAINERD       MOCLDY    19   7  59 W7        30.01R WCI  10
STAPLES        MOCLDY    18  10  73 NW10      30.02R WCI   6
LONG PRAIRIE   FAIR      19  10  68 NW12      30.02S WCI   7
LITTLE FALLS   MOCLDY    19   9  63 NW12      30.04R WCI   7
CAMP RIPLEY    MOCLDY    18   9  68 NW13      30.04R WCI   5
LITCHFIELD     PTCLDY    18  12  79 SW3       30.05R
BUFFALO        PTCLDY    18  11  74 MISG      30.05S
MAPLE LAKE       N/A     19  13  77 W5        30.05R WCI  12
HUTCHINSON     MOCLDY    18  15  88 W5        30.07R WCI  11
$$
MNZ037-044-045-052-053-010400-
   East Central Minnesota

CITY           SKY/WX    TMP DP  RH WIND       PRES   REMARKS
PRINCETON      PTCLDY    19   9  63 W9        30.02R WCI   9
MORA           PTCLDY    19   9  63 NW8       30.01R WCI   9
CAMBRIDGE      PTCLDY    21   9  58 W6        30.02R WCI  14
RUSH CITY      CLOUDY    20   9  62 W8        30.00S WCI  10
MOOSE LAKE     MOCLDY    19   7  58 NW9       29.96S WCI   9
HINCKLEY       PTCLDY    21   9  58 CALM      29.99R
CLOQUET        MOCLDY    16   3  57 W14G22    29.94R WCI   1
MCGREGOR       MOCLDY    18   9  68 NW10      29.99R WCI   6
$$
MNZ071>073-080-081-089-090-097-098-010400-
   Southwest Minnesota

CITY           SKY/WX    TMP DP  RH WIND       PRES   REMARKS
MONTEVIDEO     PTCLDY    19  10  68 W5        30.06R WCI  13
GRANITE FALLS  PTCLDY    18  12  79 SW10      30.08R WCI   6
CANBY          PTCLDY    24  17  77 SW10G17   30.04F WCI  13
MARSHALL       CLEAR     18  13  80 SW15      30.06F WCI   4
REDWOOD FALLS  CLEAR     17  11  77 SW9       30.07R WCI   6
OLIVIA         CLEAR     12  10  92 SW7       30.05S WCI   2
PIPESTONE        N/A     14  12  92 W6        30.06S WCI   5
WINDOM         CLEAR     18  14  86 W10       30.07R WCI   6
WORTHINGTON    CLEAR     18  15  88 SW9       30.09R WCI   7
JACKSON        PTCLDY    21  18  86 W9        30.09R WCI  11
TRACY          CLEAR     20  13  73 W12       30.06S WCI   8
SLAYTON        CLEAR     18  13  81 W9        30.06F WCI   6
$$
MNZ065>067-074>077-082>085-091>093-010400-
   South Central Minnesota

CITY           SKY/WX    TMP DP  RH WIND       PRES   REMARKS
MANKATO        CLEAR     19  16  88 W7        30.08R WCI  10
NEW ULM        CLEAR     19  16  86 SW6       30.08R WCI  11
ST JAMES       CLEAR     21  18  86 SW8       30.08R WCI  12
FAIRMONT       CLEAR     22  16  78 W12       30.10R WCI  10
GLENCOE        CLEAR     19  14  82 SW3       30.06R
FARIBAULT      CLEAR     19  16  86 W6        30.06R WCI  11
OWATONNA       CLEAR     19  14  79 W10       30.05S WCI   8
WASECA         CLEAR     19  14  79 W8        30.08S WCI   9
ALBERT LEA     CLEAR     19  16  86 W8        30.06S WCI   9
$$
MNZ078>079-086>088-094>096-010400-
   Southeast Minnesota

CITY           SKY/WX    TMP DP  RH WIND       PRES   REMARKS
ROCHESTER      CLEAR     18  13  80 W21G30    30.01R WCI   1
RED WING       CLEAR     21  12  68 W10       30.03R WCI  10
STANTON        CLEAR     19  14  78 W8        30.04R WCI   9
DODGE CENTER   CLEAR     18  14  86 W14       30.02S WCI   4
WINONA         CLEAR     27  19  74 W12       30.03R WCI  16
PRESTON        CLEAR     19  14  81 W16       30.01R WCI   4
$$
ABBREVIATIONS USED IN REMARKS
   TC - TEMPERATURES IN CELSIUS
  WCI - WIND CHILL INDEX
   HX - HEAT INDEX
  VSB - VISIBILITY
$$



USA.gov is the U.S. government's official web portal to all federal, state and local government web resources and services.